Stations météo

réclame
Mon MeteoGroup
Aviano, Italie (16036): Température de l'air & dewpoint: 09.08.2018 01:00:00 - 15.08.2018 01:00:00 (CEST)Aviano, Italie (16036): Vitesse du vent: 09.08.2018 01:00:00 - 15.08.2018 01:00:00 (CEST)Aviano, Italie (16036): Direction du vent: 09.08.2018 01:00:00 - 15.08.2018 01:00:00 (CEST)Aviano, Italie (16036): reduced air pressure: 09.08.2018 01:00:00 - 15.08.2018 01:00:00 (CEST)Aviano, Italie (16036): visibility: 09.08.2018 01:00:00 - 15.08.2018 01:00:00 (CEST)
Date & Time tt [°C] td [°C] ff [km/h] ff [knt] dd ppp [hPa] vv [km]
15.08.2018 01:00:00 - - - - - - -
15.08.2018 00:00:00 - - - - - - -
14.08.2018 23:00:00 - - - - - - -
14.08.2018 22:00:00 20,0 18,0 9 5 NE - 10
14.08.2018 21:00:00 20,0 18,0 9 5 N - 10
14.08.2018 20:00:00 21,0 19,8 24 13 NNE 1014,0 15
14.08.2018 19:00:00 23,0 20,0 28 15 E - 10
14.08.2018 18:00:00 27,0 19,0 11 6 E - 10
14.08.2018 17:00:00 26,8 20,6 11 6 SE 1010,6 25
14.08.2018 16:00:00 27,0 21,0 5 3 W - 10
14.08.2018 15:00:00 28,0 21,0 11 6 SSW - 10
14.08.2018 14:00:00 26,8 20,2 9 5 S 1011,4 15
14.08.2018 13:00:00 27,0 20,0 9 5 SSW - 10
14.08.2018 12:00:00 26,0 20,0 8 4 S - 10
14.08.2018 11:00:00 24,8 19,2 5 3 NE 1011,7 25
14.08.2018 10:00:00 23,0 19,0 4 2 NNE - 10
14.08.2018 09:00:00 22,0 19,0 4 2 SSE - 10
14.08.2018 08:00:00 20,4 18,7 5 3 NE 1011,4 25
14.08.2018 07:00:00 19,0 18,0 8 4 N - 10
14.08.2018 06:00:00 20,0 18,0 9 5 NE - 10
14.08.2018 05:00:00 - - - - - - -
14.08.2018 04:00:00 - - - - - - -
14.08.2018 03:00:00 - - - - - - -
14.08.2018 02:00:00 - - - - - - -
14.08.2018 01:00:00 - - - - - - -
14.08.2018 00:00:00 - - - - - - -
13.08.2018 23:00:00 - - - - - - -
13.08.2018 22:00:00 21,0 19,0 8 4 E - 10
13.08.2018 21:00:00 21,0 20,0 18 10 SSW - 10
13.08.2018 20:00:00 21,0 18,2 2 1 ENE 1010,0 25
13.08.2018 19:00:00 21,0 19,0 13 7 NE - 10
13.08.2018 18:00:00 20,0 20,0 15 8 NNE - 10
13.08.2018 17:00:00 25,6 21,3 52 28 WNW 1010,8 3,0
13.08.2018 16:00:00 29,0 22,0 16 9 N - 10
13.08.2018 15:00:00 31,0 22,0 11 6 S - 10
13.08.2018 14:00:00 30,2 21,0 11 6 SSW 1011,3 25
13.08.2018 13:00:00 30,0 21,0 11 6 S - 10
13.08.2018 12:00:00 29,0 21,0 5 3 S - 10
13.08.2018 11:00:00 28,2 21,2 8 4 ESE 1013,2 20
13.08.2018 10:00:00 27,0 21,0 8 4 ENE - 10
13.08.2018 09:00:00 26,0 20,0 9 5 ENE - 10
13.08.2018 08:00:00 23,0 20,2 5 3 NE 1013,0 25
13.08.2018 07:00:00 21,0 19,0 8 4 NE - 10
13.08.2018 06:00:00 20,0 20,0 8 4 NNE - 10
13.08.2018 05:00:00 - - - - - - -
13.08.2018 04:00:00 - - - - - - -
13.08.2018 03:00:00 - - - - - - -
13.08.2018 02:00:00 - - - - - - -
13.08.2018 01:00:00 - - - - - - -
13.08.2018 00:00:00 - - - - - - -
12.08.2018 23:00:00 - - - - - - -
12.08.2018 22:00:00 - - - - - - -
12.08.2018 21:00:00 - - - - - - -
12.08.2018 20:00:00 - - - - - - -
12.08.2018 19:00:00 - - - - - - -
12.08.2018 18:00:00 - - - - - - -
12.08.2018 17:00:00 - - - - - - -
12.08.2018 16:00:00 - - - - - - -
12.08.2018 15:00:00 - - - - - - -
12.08.2018 14:00:00 - - - - - - -
12.08.2018 13:00:00 - - - - - - -
12.08.2018 12:00:00 - - - - - - -
12.08.2018 11:00:00 - - - - - - -
12.08.2018 10:00:00 - - - - - - -
12.08.2018 09:00:00 - - - - - - -
12.08.2018 08:00:00 - - - - - - -
12.08.2018 07:00:00 - - - - - - -
12.08.2018 06:00:00 - - - - - - -
12.08.2018 05:00:00 - - - - - - -
12.08.2018 04:00:00 - - - - - - -
12.08.2018 03:00:00 - - - - - - -
12.08.2018 02:00:00 - - - - - - -
12.08.2018 01:00:00 - - - - - - -
12.08.2018 00:00:00 - - - - - - -
11.08.2018 23:00:00 - - - - - - -
11.08.2018 22:00:00 25,0 22,0 8 4 NNE - 10
11.08.2018 21:00:00 25,0 20,0 15 8 N - 10
11.08.2018 20:00:00 25,6 21,3 22 12 NNE 1016,9 20
11.08.2018 19:00:00 29,0 21,0 15 8 ESE - 10
11.08.2018 18:00:00 30,0 23,0 15 8 S - 10
11.08.2018 17:00:00 30,8 22,7 18 10 SW 1015,4 20
11.08.2018 16:00:00 31,0 23,0 11 6 WSW - 10
11.08.2018 15:00:00 29,0 23,0 5 3 WNW - 10
11.08.2018 14:00:00 31,0 22,0 9 5 W 1016,6 20
11.08.2018 13:00:00 31,0 22,0 5 3 NW - 10
11.08.2018 12:00:00 30,0 22,0 8 4 ESE - 10
11.08.2018 11:00:00 29,6 21,3 9 5 E 1017,9 25
11.08.2018 10:00:00 29,0 20,0 8 4 E - 10
11.08.2018 09:00:00 27,0 20,0 5 3 ENE - 10
11.08.2018 08:00:00 24,6 20,5 8 4 NE 1017,9 25
11.08.2018 07:00:00 22,0 21,0 13 7 NE - 10
11.08.2018 06:00:00 22,0 20,0 8 4 NNE - 10
11.08.2018 05:00:00 - - - - - - -
11.08.2018 04:00:00 - - - - - - -
11.08.2018 03:00:00 - - - - - - -
11.08.2018 02:00:00 - - - - - - -
11.08.2018 01:00:00 - - - - - - -
11.08.2018 00:00:00 - - - - - - -
10.08.2018 23:00:00 - - - - - - -
10.08.2018 22:00:00 25,0 21,0 9 5 NNW - 10
10.08.2018 21:00:00 28,0 22,0 11 6 NNE - 10
10.08.2018 20:00:00 29,6 22,3 8 4 WSW 1015,9 25
10.08.2018 19:00:00 31,0 20,0 11 6 SSW - 10
10.08.2018 18:00:00 31,0 20,0 13 7 SW - 10
10.08.2018 17:00:00 31,2 22,2 8 4 S 1017,1 25
10.08.2018 16:00:00 30,0 21,0 9 5 NNW - 10
10.08.2018 15:00:00 28,0 22,0 21 11 NNW - 10
10.08.2018 14:00:00 29,6 19,9 24 13 N 1018,5 15
10.08.2018 13:00:00 30,0 24,0 11 6 E - 10
10.08.2018 12:00:00 29,0 25,0 15 8 E - 10
10.08.2018 11:00:00 28,0 25,2 11 6 E 1018,4 10
10.08.2018 10:00:00 - - - - - - -
10.08.2018 09:00:00 27,0 22,0 11 6 NE - 10
10.08.2018 08:00:00 25,2 22,5 9 5 NE 1017,6 15
10.08.2018 07:00:00 25,0 22,0 9 5 NNE - 10
10.08.2018 06:00:00 24,0 22,0 15 8 NNE - 10
10.08.2018 05:00:00 - - - - - - -
10.08.2018 04:00:00 - - - - - - -
10.08.2018 03:00:00 - - - - - - -
10.08.2018 02:00:00 - - - - - - -
10.08.2018 01:00:00 - - - - - - -
10.08.2018 00:00:00 - - - - - - -
09.08.2018 23:00:00 - - - - - - -
09.08.2018 22:00:00 26,0 22,0 5 3 NE - 10
09.08.2018 21:00:00 28,0 20,0 5 3 NNE - 10
09.08.2018 20:00:00 29,0 22,5 9 5 ENE 1014,2 20
09.08.2018 19:00:00 30,0 21,0 15 8 N - 10
09.08.2018 18:00:00 32,0 23,0 11 6 WSW - 10
09.08.2018 17:00:00 33,4 23,7 5 3 S 1013,9 25
09.08.2018 16:00:00 - - - - - - -
09.08.2018 15:00:00 33,0 24,0 9 5 S - 10
09.08.2018 14:00:00 32,0 21,8 8 4 SSW 1015,3 20
09.08.2018 13:00:00 - - - - - - -
09.08.2018 12:00:00 31,0 24,0 8 4 SSW - 10
09.08.2018 11:00:00 29,0 22,0 5 3 SSW - 10
09.08.2018 10:00:00 28,0 20,0 8 4 S - 10
09.08.2018 09:00:00 26,0 23,0 5 3 WSW - 10
09.08.2018 08:00:00 24,0 22,3 5 3 W 1015,8 12
09.08.2018 07:00:00 22,0 21,0 5 3 NNE - 10
09.08.2018 06:00:00 22,0 21,0 5 3 NNE - 10
09.08.2018 05:00:00 - - - - - - -
09.08.2018 04:00:00 - - - - - - -
09.08.2018 03:00:00 - - - - - - -
09.08.2018 02:00:00 - - - - - - -
09.08.2018 01:00:00 - - - - - - -

tt = Température de l'air
td = dewpoint
ff = Vitesse du vent
dd = Direction du vent
ppp = reduced air pressure
vv = visibility

stations d'obs. à proximité